Weather History for KCUL - December, 2011

Change the Weather History Date:

Wednesday, December 14, 2011

  Actual Average (KEVV) Record (KEVV)
Temperature  
Mean Temperature 50 °F 36 °F  
Max Temperature 57 °F 44 °F 72 °F (1995)
Min Temperature 44 °F 27 °F 0 °F (1901)
Degree Days  
Heating Degree Days 14 29  
Month to date heating degree days 384  
Since 1 July heating degree days 1245  
Cooling Degree Days 0 0  
Month to date cooling degree days 0  
Year to date cooling degree days 1397  
Moisture  
Dew Point 49 °F    
Average Humidity 93    
Maximum Humidity 100    
Minimum Humidity 85    
Precipitation  
Precipitation 0.01 in 0.12 in 1.12 in (1951)
Month to date precipitation 1.82  
Year to date precipitation 43.37  
Snow  
Snow 0.00 in 0.20 in 4.80 in (1973)
Month to date snowfall 1.1  
Since 1 July snowfall 1.4  
Snow Depth -    
Sea Level Pressure  
Sea Level Pressure 30.14 in    
Wind  
Wind Speed 9 mph (South)    
Max Wind Speed 22 mph    
Max Gust Speed 28 mph    
Visibility 6 miles    
Events Thunderstorm    
T = Trace of Precipitation, MM = Missing Value Source: NWS Daily Summary

Daily Weather History Graph

Daily Weather History Graph

Search for Another Location

Airport or City:

Trip Planner

Search our weather history database for the weather conditions in past years. The results will help you decide how hot, cold, wet, or windy it might be!

Date:

Astronomy

Dec. 14, 2011 Rise Set
Actual Time 7:00 AM CST 4:33 PM CST
Civil Twilight 6:31 AM CST 5:02 PM CST
Nautical Twilight 5:58 AM CST 5:36 PM CST
Astronomical Twilight 5:26 AM CST 6:08 PM CST
Moon 8:50 PM CST (12/14) 9:47 AM CST (12/14)
Length of Visible Light 10h 31m
Length of Day
9h 32m
Waning Gibbous, 83% of the Moon is Illuminated
Dec 14
Waning Gibbous
Dec 17
Last Quarter
Dec 24
New
Jan 1
First Quarter
Jan 9
Full

Hourly Weather History & Observations

Time (CST) Temp. Windchill Dew Point Humidity Pressure Visibility Wind Dir Wind Speed Gust Speed Precip Events Conditions
12:15 AM 44.6 °F 42.2 °F 44.6 °F 100% 30.28 in 1.8 mi SSE 4.6 mph - N/A   Mist
12:35 AM 44.1 °F 41.5 °F 43.9 °F 99% 30.27 in 1.5 mi SSE 4.6 mph - N/A   Mist
12:55 AM 44.1 °F 40.8 °F 43.9 °F 99% 30.27 in 1.5 mi SSE 5.8 mph - N/A   Mist
1:15 AM 44.2 °F 41.8 °F 44.1 °F 99% 30.26 in 1.5 mi SE 4.6 mph - N/A   Mist
1:35 AM 45.0 °F 41.8 °F 44.8 °F 99% 30.25 in 2.0 mi SE 5.8 mph - N/A   Mist
1:55 AM 45.5 °F 42.5 °F 45.0 °F 98% 30.25 in 2.5 mi SE 5.8 mph - N/A   Mist
2:15 AM 45.7 °F 42.0 °F 45.5 °F 99% 30.25 in 3.0 mi SSE 6.9 mph - N/A   Mist
2:35 AM 45.9 °F 42.3 °F 45.5 °F 99% 30.24 in 3.0 mi SSE 6.9 mph - N/A   Mist
2:55 AM 45.5 °F 41.8 °F 45.0 °F 98% 30.24 in 2.5 mi SSE 6.9 mph - N/A   Mist
3:15 AM 45.5 °F 41.8 °F 45.0 °F 98% 30.23 in 2.5 mi SE 6.9 mph - N/A   Mist
3:35 AM 44.6 °F 40.2 °F 44.2 °F 99% 30.21 in 2.0 mi SE 8.1 mph - N/A   Mist
3:55 AM 44.6 °F 40.2 °F 44.4 °F 99% 30.20 in 1.8 mi SE 8.1 mph - N/A   Mist
4:15 AM 45.0 °F 41.2 °F 44.6 °F 99% 30.19 in 2.0 mi SE 6.9 mph - N/A   Mist
4:35 AM 45.1 °F 40.8 °F 44.8 °F 99% 30.18 in 2.5 mi SE 8.1 mph - N/A   Mist
4:55 AM 45.5 °F 41.3 °F 45.0 °F 98% 30.18 in 2.5 mi SSE 8.1 mph - N/A   Mist
5:15 AM 45.5 °F 41.8 °F 45.1 °F 99% 30.18 in 2.5 mi South 6.9 mph - N/A   Mist
5:35 AM 45.5 °F 41.3 °F 45.1 °F 99% 30.18 in 2.5 mi SSE 8.1 mph - N/A   Mist
5:55 AM 45.7 °F 41.5 °F 45.5 °F 99% 30.19 in 2.5 mi South 8.1 mph - N/A   Mist
6:15 AM 45.5 °F 41.8 °F 45.0 °F 98% 30.18 in 2.5 mi SSE 6.9 mph - N/A   Mist
6:35 AM 44.2 °F - 43.9 °F 99% 30.19 in 2.0 mi Calm Calm - N/A   Mist
6:55 AM 44.8 °F 41.0 °F 44.6 °F 99% 30.18 in 2.5 mi SSE 6.9 mph - N/A   Mist
7:15 AM 46.4 °F 43.5 °F 46.0 °F 99% 30.18 in 4.0 mi SSE 5.8 mph - N/A   Mist
7:35 AM 46.8 °F - 46.0 °F 97% 30.18 in 2.0 mi SSE 8.1 mph - N/A   Mist
7:55 AM 49.1 °F - 47.8 °F 95% 30.19 in 4.0 mi South 10.4 mph - N/A   Mist
8:15 AM 50.2 °F - 48.6 °F 94% 30.18 in 4.0 mi South 10.4 mph - N/A   Mist
8:35 AM 50.4 °F - 48.7 °F 94% 30.18 in 4.0 mi South 11.5 mph - N/A   Mist
8:55 AM 51.1 °F - 49.5 °F 94% 30.18 in 4.0 mi South 12.7 mph 17.3 mph N/A   Mist
9:15 AM 51.8 °F - 50.2 °F 94% 30.19 in 4.0 mi South 13.8 mph - N/A   Mist
9:35 AM 52.3 °F - 50.7 °F 94% 30.18 in 5.0 mi SSW 12.7 mph 17.3 mph N/A   Mist
9:55 AM 53.1 °F - 51.1 °F 93% 30.18 in 5.0 mi South 13.8 mph 21.9 mph N/A   Mist
10:15 AM 53.6 °F - 51.4 °F 92% 30.17 in 7.0 mi South 13.8 mph - N/A   Unknown
10:35 AM 54.1 °F - 52.0 °F 92% 30.16 in 7.0 mi South 17.3 mph 25.3 mph N/A   Unknown
10:55 AM 55.0 °F - 52.0 °F 89% 30.15 in 10.0 mi SSW 18.4 mph 25.3 mph N/A   Unknown
11:15 AM 55.0 °F - 52.0 °F 89% 30.14 in 7.0 mi SSW 18.4 mph 26.5 mph N/A   Unknown
11:35 AM 55.6 °F - 52.2 °F 88% 30.12 in 10.0 mi South 21.9 mph 27.6 mph 0.01 in   Unknown
11:55 AM 55.6 °F - 52.7 °F 90% 30.11 in 10.0 mi SSW 17.3 mph 24.2 mph 0.01 in   Unknown
12:15 PM 55.6 °F - 52.5 °F 89% 30.10 in 10.0 mi South 20.7 mph 25.3 mph N/A   Unknown
12:35 PM 55.8 °F - 52.7 °F 89% 30.08 in 10.0 mi South 19.6 mph 25.3 mph N/A   Unknown
12:55 PM 55.8 °F - 52.7 °F 89% 30.08 in 10.0 mi South 15.0 mph - N/A   Unknown
1:15 PM 55.8 °F - 52.9 °F 90% 30.07 in 7.0 mi South 16.1 mph 24.2 mph N/A   Unknown
1:35 PM 56.3 °F - 53.2 °F 89% 30.04 in 7.0 mi South 18.4 mph 27.6 mph N/A   Unknown
1:55 PM 56.5 °F - 53.2 °F 89% 30.04 in 7.0 mi South 20.7 mph 26.5 mph N/A   Unknown
2:15 PM 56.7 °F - 53.2 °F 88% 30.04 in 7.0 mi SSW 20.7 mph 26.5 mph N/A   Unknown
2:35 PM 56.7 °F - 53.2 °F 88% 30.04 in 7.0 mi South 17.3 mph 24.2 mph N/A   Unknown
2:55 PM 56.7 °F - 53.2 °F 88% 30.03 in 7.0 mi South 16.1 mph 23.0 mph N/A   Unknown
3:15 PM 57.2 °F - 53.6 °F 88% 30.03 in 10.0 mi South 16.1 mph - N/A   Unknown
3:35 PM 57.6 °F - 53.6 °F 87% 30.04 in 10.0 mi South 16.1 mph - N/A   Unknown
3:55 PM 57.6 °F - 53.6 °F 87% 30.03 in 10.0 mi South 15.0 mph - N/A   Unknown
4:15 PM 57.6 °F - 53.6 °F 87% 30.02 in 10.0 mi South 13.8 mph - N/A   Unknown
4:35 PM 57.6 °F - 53.6 °F 87% 30.02 in 10.0 mi South 13.8 mph - N/A Thunderstorm Unknown
4:55 PM 57.2 °F - 53.1 °F 86% 30.01 in 10.0 mi South 12.7 mph - N/A Thunderstorm Thunderstorm
5:15 PM 57.2 °F - 52.9 °F 85% 30.00 in 10.0 mi South 17.3 mph - N/A   Unknown
5:35 PM 56.7 °F - 52.7 °F 87% 30.00 in 10.0 mi South 15.0 mph - N/A   Unknown
5:55 PM 56.3 °F - 52.7 °F 88% 29.99 in 10.0 mi South 15.0 mph - N/A   Unknown
6:15 PM 56.3 °F - 52.5 °F 87% 29.99 in 10.0 mi South 13.8 mph - N/A   Unknown
6:35 PM 55.6 °F - 52.2 °F 88% 29.98 in 10.0 mi South 12.7 mph - N/A   Unknown
6:55 PM 55.6 °F - 52.2 °F 88% 29.98 in 10.0 mi South 12.7 mph - N/A   Unknown
7:15 PM 55.6 °F - 52.2 °F 88% 29.96 in 10.0 mi South 15.0 mph - N/A   Unknown
7:35 PM 55.6 °F - 52.2 °F 88% 29.95 in 10.0 mi SSE 12.7 mph - N/A   Unknown
7:55 PM 55.8 °F - 52.2 °F 88% 29.95 in 10.0 mi SSE 10.4 mph - N/A   Unknown
8:35 PM 55.9 °F - 52.3 °F 88% 29.93 in 10.0 mi SSE 9.2 mph - N/A   Unknown
8:55 PM 58.3 °F - 53.4 °F 84% 29.93 in 10.0 mi South 13.8 mph 19.6 mph N/A   Unknown
9:15 PM 59.5 °F - 53.8 °F 81% 29.93 in 10.0 mi South 18.4 mph 25.3 mph N/A   Light Drizzle
9:35 PM 59.5 °F - 54.0 °F 82% 29.93 in 10.0 mi South 17.3 mph 24.2 mph N/A Rain Light Rain
9:55 PM 58.8 °F - 54.5 °F 86% 29.94 in 10.0 mi South 17.3 mph - 0.01 in Rain , Thunderstorm Light Thunderstorms and Rain
10:15 PM 60.1 °F - 54.5 °F 82% 29.96 in 10.0 mi SSW 18.4 mph 24.2 mph N/A   Unknown
10:35 PM 59.9 °F - 54.5 °F 82% 29.97 in 10.0 mi SSW 10.4 mph 13.8 mph N/A Rain , Thunderstorm Rain
10:55 PM 59.0 °F - 55.2 °F 87% 29.97 in 5.0 mi SSW 16.1 mph 21.9 mph 0.07 in Rain , Thunderstorm Heavy Thunderstorms and Rain
11:15 PM 58.1 °F - 55.8 °F 92% 29.97 in 4.0 mi SSW 10.4 mph - 0.10 in Rain Heavy Rain
11:35 PM 57.6 °F - 55.9 °F 94% 29.96 in 4.0 mi SSW 11.5 mph - 0.19 in Rain Heavy Rain
11:55 PM 57.2 °F - 55.6 °F 94% 29.95 in 5.0 mi South 11.5 mph 18.4 mph 0.24 in Rain Heavy Rain